Regional Weather Roundup
Issued by NWS Cleveland, OH

Home | Current Version | Previous Version | Graphics & Text | Print | Product List | Glossary On
Versions: 1 2 3 4 5 6 7 8 9 10 11 12 13 14 15 16 17 18 19 20 21 22 23 24 25 26 27 28 29 30 31 32 33 34 35 36 37 38 39 40 41 42 43 44 45 46 47 48 49 50
000
ASUS41 KCLE 021910
RWRCLE
OHIO REGIONAL WEATHER ROUNDUP
NATIONAL WEATHER SERVICE CLEVELAND, OH
200 PM EST FRI DEC 02 2016

NOTE: "FAIR" INDICATES FEW OR NO CLOUDS BELOW 12,000 FEET WITH NO
SIGNIFICANT WEATHER AND/OR OBSTRUCTIONS TO VISIBILITY.

OHZ001>008-015>018-024>027-034-035-043-044-022000-
   NORTHWEST OHIO

CITY           SKY/WX    TMP DP  RH WIND       PRES   REMARKS
DEFIANCE       CLOUDY    41  31  67 W9        30.12R
FINDLAY        CLOUDY    41  31  67 W22       30.10R
TOLEDO EXPRESS CLOUDY    39  35  86 W12       30.09R
TOLEDO EXEC    CLOUDY    38  36  92 NW7       30.10R
LIMA           CLOUDY    39  32  76 W18       30.12S
$$

OHZ009>014-019>023-028>033-038-089-022000-
   NORTHEAST OHIO

CITY           SKY/WX    TMP DP  RH WIND       PRES   REMARKS
CLE-HOPKINS    CLOUDY    41  31  67 SW15      30.07S
CLE-LAKEFRONT  LGT RAIN  39  34  82 W21G32    30.05R
CUY CO. ARPT   LGT RAIN  39  36  87 NW12G21   30.04S
LORAIN-ELYRIA  LGT RAIN  39  31  72 W13       30.07R
ASHTABULA      CLOUDY    37  35  92 W16G23    30.01R
AKRON-CANTON   CLOUDY    39  29  67 W14       30.05S
WOOSTER        CLOUDY    38  30  73 W17       30.07S
MANSFIELD      CLOUDY    37  31  78 W14G22    30.08R
YOUNGSTOWN     LGT RAIN  38  31  76 W14G22    30.02S
$$

OHZ042-051>053-060>062-070>072-077>081-022000-
  SOUTHWEST OHIO

CITY           SKY/WX    TMP DP  RH WIND       PRES   REMARKS
CINC-COVINGTON CLOUDY    39  30  70 W9        30.19F
CINC-LUNKEN    CLOUDY    40  32  73 SW12      30.22S
HAMILTON       CLOUDY    41  30  65 W8        30.21S
DAYTON         CLOUDY    38  31  76 W15       30.17S
WRIGHT-PAT AFB CLOUDY    39  31  73 W9        30.17R
DAYTON GENERAL CLOUDY    39  29  67 W10       30.17S
WILMINGTON     CLOUDY    38  30  73 W10       30.17S
$$

OHZ036-037-039>041-045>050-054>059-063>069-073>076-082>088-022000-
  CENTRAL AND SOUTHEAST OHIO

CITY           SKY/WX    TMP DP  RH WIND       PRES   REMARKS
COLUMBUS       CLOUDY    38  32  79 W14       30.14S
OSU AIRPORT    CLOUDY    38  33  82 W12       30.14S
BOLTON FIELD   CLOUDY    37  32  81 W12       30.16R
RICKENBACK AFB CLOUDY    38  31  74 W13       30.16S
NEWARK         CLOUDY    39  30  70 W10       30.13S
MARION         CLOUDY    39  30  70 W15G23    30.12R
LANCASTER      CLOUDY    39  32  76 W9        30.15F
ZANESVILLE     CLOUDY    39  30  70 W8        30.13S
NEW PHILLY     CLOUDY    39  30  70 W6        30.10R
$$



USA.gov is the U.S. government's official web portal to all federal, state and local government web resources and services.